STARLINK-1643, 46136

Orbit data source: Space-Track

STARLINK-1643, 46136 is a payload satellite owned by SpaceX/Seattle (US) in LEO that was launched on Tue, 18 Aug 2020 UTC via an FALCON 9 launch vehicle from the Air Force Eastern Test Range (AFETR). Payload-class satellites include a variety of spacecraft equipped with specific instruments for various scientific and technological missions. These include communications satellites like Starlink; space stations such as the ISS; scientific satellites like the Hubble; Earth observation satellites from companies like Planet Labs, Umbra, and HawkEye 360; GPS; miniature CubeSats for education and research; and military/defense satellites.

Not visible in the next 10 days
Identifier
46136, 2020-057V
Orbit
LEO
Country
Flag of USUS
Related business
Manufacturer
SpaceX/Seattle
Mission
Partially operational Commercial Communications
Bus & Motor
STARLINK, Unknown motor
Mass
260 kg wet, ~248 kg dry
Launch date (UTC)
2020-08-18 (5 years ago)
Launch vehicle
FALCON 9
Launch site
Air Force Eastern Test Range (AFETR)
Object type
Payload
Rocket body
Debris
Shape & HBR
Box + 1 Pan, 10.1 m
Radar Cross Section
13.562 m², Large (>1 m²)

Expand to show TLE details & history
Last TLE update: 2 weeks ago

TLE from 2 weeks ago
0 STARLINK-1643
1 46136U 20057V   25336.22003641  .11313202  12419-4  55348-3 0  9993
2 46136  53.0176 324.9506 0002220 214.8780 145.2123 16.43129586292342
Epoch: 2025-12-02T05:16Z
TLE epoch observation values (Epoch: 2025-12-02T05:16:51.145Z)
Latitude
0.00002°
Longitude
174.42919°
Altitude
159.609 km
Speed
7.811 km/s
True Right ascension
21h 39m 48s
True Declination
0° 00' 00"
Sunlit
Object was in daylight at epoch
Visualization orbit readout
Latitude
Unknown
Longitude
Unknown
Altitude
Unknown
Speed
Unknown
Apparent Right ascension
Unknown
Apparent Declination
Unknown
Sunlit
N/A
Visualization observer readout
Local Sidereal Time
10:44:08
Azimuth
Unknown
Elevation
Unknown
Doppler factor
Unknown
Orbital elements
Apogee altitude
159.234 km
Perigee altitude
156.332 km
Semi-major axis
6,535.92 km
Eccentricity
0.00022
Inclination
53.0176°
RAAN
324.9506°
Arg. of periapsis
214.878°
True anomaly
145.22681°
Mean anomaly
145.2123°
Eccentric anomaly
145.21956°
Mean motion
4.10755 °/min
Orbital period
87.64 mins
BSTAR
0.00055348
Loading maneuver chart data...
Computing Atmospheric mass density...

Documentation

Showing up to 5 results
|